This is the latest recevied weather packets stored in our database for station/object W4SKW. If no packets are shown the sender has not sent any weather packets the latest 10 day(s).
| Time | Temp. | Humidity | Pressure | Rain* | Wind** | Luminosity | Snow |
|---|---|---|---|---|---|---|---|
| 1777704083 | 13.89° C | 58% | 1015.1 hPa | 0 mm | - | 0 W/m² | - |
| 1777703781 | 13.89° C | 58% | 1015.1 hPa | 0 mm | - | 0 W/m² | - |
| 1777703478 | 13.89° C | 67% | 1015 hPa | 0 mm | - | 0 W/m² | - |
| 1777703175 | 13.89° C | 64% | 1015 hPa | 0 mm | - | 0 W/m² | - |
| 1777702873 | 13.89° C | 62% | 1015 hPa | 0 mm | - | 0 W/m² | - |
| 1777702570 | 14.44° C | 60% | 1015.1 hPa | 0 mm | - | 0 W/m² | - |
| 1777702267 | 14.44° C | 64% | 1015.2 hPa | 0 mm | - | 0 W/m² | - |
| 1777701962 | 14.44° C | 63% | 1015.3 hPa | 0 mm | - | 0 W/m² | - |
| 1777701659 | 14.44° C | 64% | 1015.1 hPa | 0 mm | - | 0 W/m² | - |
| 1777701357 | 14.44° C | 61% | 1015.4 hPa | 0 mm | - | 0 W/m² | - |
| 1777701055 | 14.44° C | 65% | 1015.1 hPa | 0 mm | - | 0 W/m² | - |
| 1777700754 | 14.44° C | 67% | 1015.2 hPa | 0 mm | - | 0 W/m² | - |
| 1777700450 | 14.44° C | 67% | 1015.2 hPa | 0 mm | - | 0 W/m² | - |
| 1777700147 | 14.44° C | 63% | 1015 hPa | 0 mm | - | 0 W/m² | - |
| 1777699845 | 14.44° C | 63% | 1015 hPa | 0 mm | - | 0 W/m² | - |
| 1777699543 | 14.44° C | 67% | 1014.9 hPa | 0 mm | - | 0 W/m² | - |
| 1777699241 | 14.44° C | 67% | 1014.9 hPa | 0 mm | - | 0 W/m² | - |
| 1777698939 | 14.44° C | 68% | 1015.1 hPa | 0 mm | - | 0 W/m² | - |
| 1777698636 | 15° C | 67% | 1015 hPa | 0 mm | - | 0 W/m² | - |
| 1777698332 | 15° C | 68% | 1015 hPa | 0 mm | - | 0 W/m² | - |
| 1777698029 | 15° C | 67% | 1015.1 hPa | 0 mm | - | 0 W/m² | - |
| 1777697726 | 15° C | 67% | 1015.1 hPa | 0 mm | - | 0 W/m² | - |
| 1777697423 | 15° C | 68% | 1015.1 hPa | 0 mm | - | 0 W/m² | - |
| 1777697120 | 15° C | 71% | 1015 hPa | 0 mm | - | 0 W/m² | - |
| 1777696816 | 15° C | 71% | 1015 hPa | 0 mm | - | 0 W/m² | - |
* Rain latest hour (hover to see other rain measurements)
** Current wind speed in m/s (hover to see current wind gust speed)